Location: Bezawada
(16.5136°N, 80.6297°E)
Time: 21:55:16
(UTC+00:00)

BREEZE-M DEB (TANK) - Pass Details

Date: 27 February 2020
Orbit: 293 x 15450 km, 49.5° (Epoch: 29 March)

Event Time Altitude Azimuth Distance (km) Brightness Sun altitude
Rises 12:43:31 0° 320° (NW) 9,132 9.0 -0.8°
Reaches altitude 10° 12:52:53 10° 326° (NNW) 5,719 7.8 -3.0°
Maximum altitude 13:03:51 36° 29° (NNE) 1,510 4.3 -5.6°
Drops below altitude 10° 13:07:28 10° 99° (E) 1,863 4.4 -6.5°
Enters shadow 13:07:57 - 104° (ESE) 2,043 4.6 -6.6°
